| time (UTC) | temp F | wind direction | speed knots | gust knots | rain 1hr in | rain 24hr in | rain mn in | humidity % | barometer mb |
| 20260503045305 | 56 | 180 | 1.7 | 2.6 | 0.00 | 0.44 | 0.03 | 94 | 1013.0 |
| 20260503044806 | 56 | 170 | 1.7 | 4.3 | 0.00 | 0.44 | 0.03 | 94 | 1013.1 |
| 20260503043804 | 57 | 176 | 1.7 | 2.6 | 0.00 | 0.44 | 0.03 | 94 | 1012.9 |
| 20260503041807 | 57 | 201 | 2.6 | 4.3 | 0.00 | 0.44 | 0.03 | 94 | 1012.9 |
| 20260503040306 | 57 | 206 | 2.6 | 5.2 | 0.00 | 0.44 | 0.03 | 94 | 1012.9 |
| 20260503034806 | 57 | 197 | 2.6 | 2.6 | 0.00 | 0.44 | 0.03 | 94 | 1013.1 |
| 20260503032803 | 58 | 204 | 2.6 | 4.3 | 0.00 | 0.44 | 0.03 | 94 | 1013.1 |
| 20260503031304 | 58 | 192 | 1.7 | 2.6 | 0.00 | 0.44 | 0.03 | 94 | 1013.1 |
| 20260503030803 | 58 | 183 | 1.7 | 2.6 | 0.00 | 0.44 | 0.03 | 94 | 1013.1 |
| 20260503025803 | 58 | 171 | 1.7 | 2.6 | 0.00 | 0.44 | 0.03 | 94 | 1013.2 |
| 20260503025305 | 58 | 207 | 1.7 | 2.6 | 0.00 | 0.44 | 0.03 | 94 | 1013.2 |
| 20260503023306 | 58 | 197 | 0.9 | 2.6 | 0.00 | 0.44 | 0.03 | 94 | 1013.3 |
| 20260503022803 | 58 | 197 | 1.7 | 2.6 | 0.00 | 0.44 | 0.03 | 94 | 1013.3 |
| 20260503022305 | 58 | 201 | 1.7 | 2.6 | 0.00 | 0.44 | 0.03 | 94 | 1013.3 |
| 20260503021806 | 58 | 206 | 2.6 | 4.3 | 0.00 | 0.44 | 0.03 | 93 | 1013.4 |
| 20260503020306 | 58 | 212 | 1.7 | 2.6 | 0.00 | 0.44 | 0.03 | 93 | 1013.4 |
| 20260503015803 | 58 | 197 | 2.6 | 5.2 | 0.00 | 0.44 | 0.03 | 93 | 1013.6 |
| 20260503015305 | 58 | 225 | 2.6 | 4.3 | 0.00 | 0.44 | 0.03 | 93 | 1013.6 |
| 20260503013305 | 59 | 157 | 0.0 | 0.0 | 0.00 | 0.44 | 0.03 | 93 | 1013.6 |
| 20260503012803 | 59 | 157 | 0.0 | 2.6 | 0.00 | 0.44 | 0.03 | 93 | 1013.6 |
| 20260503012305 | 59 | 157 | 0.9 | 2.6 | 0.00 | 0.44 | 0.03 | 93 | 1013.7 |
| 20260503011304 | 59 | 157 | 0.0 | 2.6 | 0.00 | 0.44 | 0.03 | 93 | 1014.0 |
| 20260503001805 | 59 | 209 | 0.0 | 2.6 | 0.03 | 0.44 | 0.03 | 93 | 1014.3 |
| 20260502235803 | 60 | 209 | 1.7 | 2.6 | 0.03 | 0.44 | 0.03 | 93 | 1014.4 |
| 20260502234807 | 60 | 210 | 1.7 | 2.6 | 0.03 | 0.44 | 0.03 | 93 | 1014.4 |
| 20260502233803 | 60 | 249 | 0.9 | 2.6 | 0.02 | 0.43 | 0.02 | 93 | 1014.5 |
| 20260502232803 | 60 | 240 | 3.5 | 4.3 | 0.02 | 0.43 | 0.02 | 93 | 1014.5 |
| 20260502230806 | 60 | 235 | 2.6 | 4.3 | 0.00 | 0.41 | 0.00 | 93 | 1014.5 |
| 20260502225803 | 60 | 228 | 3.5 | 6.1 | 0.00 | 0.41 | 0.00 | 93 | 1014.5 |
| 20260502224806 | 60 | 238 | 2.6 | 4.3 | 0.00 | 0.41 | 0.00 | 93 | 1014.5 |
| 20260502223804 | 60 | 238 | 1.7 | 2.6 | 0.00 | 0.41 | 0.00 | 93 | 1014.5 |
| 20260502223306 | 60 | 238 | 1.7 | 2.6 | 0.00 | 0.41 | 0.00 | 93 | 1014.6 |
| 20260502215305 | 59 | 239 | 2.6 | 4.3 | 0.00 | 0.41 | 0.41 | 93 | 1014.6 |
| 20260502214806 | 60 | 239 | 2.6 | 4.3 | 0.00 | 0.41 | 0.41 | 93 | 1014.6 |
| 20260502213803 | 60 | 239 | 2.6 | 5.2 | 0.00 | 0.41 | 0.41 | 93 | 1014.7 |
| 20260502213307 | 60 | 239 | 3.5 | 5.2 | 0.00 | 0.41 | 0.41 | 93 | 1014.7 |
| 20260502210804 | 60 | 195 | 1.7 | 2.6 | 0.00 | 0.41 | 0.41 | 93 | 1014.7 |
| 20260502210306 | 60 | 180 | 2.6 | 2.6 | 0.00 | 0.41 | 0.41 | 93 | 1014.8 |
| 20260502205305 | 60 | 208 | 1.7 | 4.3 | 0.00 | 0.41 | 0.41 | 93 | 1014.8 |
| 20260502203306 | 60 | 215 | 2.6 | 4.3 | 0.00 | 0.41 | 0.41 | 93 | 1014.7 |
| 20260502202305 | 60 | 219 | 4.3 | 7.8 | 0.00 | 0.41 | 0.41 | 93 | 1014.7 |
| 20260502201807 | 60 | 208 | 2.6 | 6.1 | 0.00 | 0.41 | 0.41 | 93 | 1014.6 |
| 20260502201303 | 60 | 227 | 3.5 | 6.1 | 0.00 | 0.41 | 0.41 | 92 | 1014.6 |
| 20260502195803 | 60 | 257 | 5.2 | 7.8 | 0.00 | 0.41 | 0.41 | 92 | 1014.6 |
| 20260502194805 | 60 | 249 | 5.2 | 7.8 | 0.00 | 0.41 | 0.41 | 92 | 1014.6 |
| 20260502193305 | 60 | 268 | 5.2 | 7.0 | 0.00 | 0.41 | 0.41 | 92 | 1014.6 |
| 20260502185804 | 61 | 254 | 2.6 | 5.2 | 0.00 | 0.41 | 0.41 | 93 | 1014.2 |
| 20260502183804 | 61 | 273 | 4.3 | 6.1 | 0.00 | 0.41 | 0.41 | 92 | 1014.2 |
| 20260502181806 | 61 | 277 | 2.6 | 2.6 | 0.00 | 0.41 | 0.41 | 93 | 1014.1 |
| 20260502181304 | 61 | 270 | 2.6 | 5.2 | 0.00 | 0.41 | 0.41 | 92 | 1014.0 |
| 20260502180804 | 61 | 254 | 3.5 | 5.2 | 0.00 | 0.41 | 0.41 | 92 | 1013.9 |
| 20260502164303 | 61 | 9 | 7.8 | 11.3 | 0.20 | 0.40 | 0.40 | 92 | 1014.0 |
| 20260502163803 | 61 | 15 | 8.7 | 10.4 | 0.20 | 0.40 | 0.40 | 92 | 1014.0 |
| 20260502163306 | 61 | 350 | 2.6 | 6.1 | 0.21 | 0.40 | 0.40 | 92 | 1014.7 |
| 20260502160803 | 62 | 266 | 6.1 | 10.4 | 0.13 | 0.30 | 0.30 | 91 | 1014.9 |
| 20260502160305 | 62 | 263 | 5.2 | 8.7 | 0.09 | 0.26 | 0.26 | 91 | 1014.9 |
| 20260502121807 | 61 | 122 | 6.1 | 10.4 | 0.00 | 0.13 | 0.13 | 92 | 1015.7 |
| 20260502120804 | 61 | 91 | 4.3 | 10.4 | 0.00 | 0.13 | 0.13 | 92 | 1015.4 |
| 20260502120306 | 62 | 94 | 5.2 | 8.7 | 0.00 | 0.13 | 0.13 | 92 | 1015.5 |
| 20260502115306 | 61 | 87 | 6.1 | 8.7 | 0.00 | 0.13 | 0.13 | 92 | 1015.4 |
| 20260502114807 | 62 | 82 | 3.5 | 6.1 | 0.00 | 0.13 | 0.13 | 92 | 1015.4 |
| 20260502113306 | 62 | 38 | 4.3 | 5.2 | 0.00 | 0.13 | 0.13 | 92 | 1015.5 |
| 20260502112305 | 62 | 358 | 6.1 | 7.8 | 0.00 | 0.13 | 0.13 | 92 | 1015.7 |
| 20260502111806 | 61 | 348 | 5.2 | 10.4 | 0.00 | 0.13 | 0.13 | 92 | 1015.9 |
| 20260502111304 | 61 | 343 | 10.4 | 11.3 | 0.00 | 0.13 | 0.13 | 92 | 1015.8 |
| 20260502105804 | 62 | 343 | 8.7 | 11.3 | 0.00 | 0.13 | 0.13 | 92 | 1016.2 |
| 20260502104304 | 61 | 299 | 4.3 | 7.0 | 0.00 | 0.13 | 0.13 | 92 | 1016.5 |
| 20260502103804 | 61 | 38 | 1.7 | 2.6 | 0.00 | 0.13 | 0.13 | 92 | 1016.3 |
| 20260502100306 | 61 | 87 | 2.6 | 4.3 | 0.00 | 0.13 | 0.13 | 92 | 1016.2 |
| 20260502091304 | 62 | 95 | 0.9 | 4.3 | 0.04 | 0.13 | 0.13 | 92 | 1016.3 |
| 20260502090804 | 62 | 79 | 1.7 | 6.1 | 0.04 | 0.13 | 0.13 | 92 | 1016.2 |
| 20260502071304 | 62 | 271 | 7.8 | 11.3 | 0.00 | 0.00 | 0.00 | 92 | 1017.2 |
| 20260502065306 | 62 | 240 | 5.2 | 8.7 | 0.00 | 0.00 | 0.00 | 92 | 1016.5 |
| 20260502063306 | 62 | 268 | 3.5 | 7.0 | 0.00 | 0.00 | 0.00 | 92 | 1016.4 |
| 20260502062804 | 62 | 236 | 2.6 | 4.3 | 0.00 | 0.00 | 0.00 | 92 | 1016.3 |
| 20260502055305 | 62 | 250 | 3.5 | 6.1 | 0.00 | 0.00 | 0.00 | 92 | 1015.8 |
| 20260502053305 | 62 | 301 | 4.3 | 6.1 | 0.00 | 0.00 | 0.00 | 92 | 1015.6 |
| 20260502052803 | 62 | 315 | 4.3 | 6.1 | 0.00 | 0.00 | 0.00 | 92 | 1015.6 |
| 20260502051304 | 61 | 312 | 5.2 | 7.0 | 0.00 | 0.00 | 0.00 | 92 | 1015.7 |
| 20260502050803 | 61 | 277 | 4.3 | 7.0 | 0.00 | 0.00 | 0.00 | 92 | 1015.7 |